This is the latest recevied weather packets stored in our database for station/object NK7I. If no packets are shown the sender has not sent any weather packets the latest 10 day(s).
| Time | Temp. | Humidity | Pressure | Rain* | Wind** | Luminosity | Snow |
|---|---|---|---|---|---|---|---|
| 1777955782 | 15° C | 51% | 1009.4 hPa | 0 mm | - | 0 W/m² | - |
| 1777955482 | 15.56° C | 51% | 1009.2 hPa | 0 mm | - | 0 W/m² | - |
| 1777955182 | 15.56° C | 51% | 1009.1 hPa | 0 mm | - | 0 W/m² | - |
| 1777954882 | 15.56° C | 51% | 1009.1 hPa | 0 mm | - | 0 W/m² | - |
| 1777954582 | 15.56° C | 50% | 1008.9 hPa | 0 mm | - | 0 W/m² | - |
| 1777954282 | 16.11° C | 50% | 1009 hPa | 0 mm | - | 0 W/m² | - |
| 1777953982 | 16.11° C | 49% | 1008.8 hPa | 0 mm | - | 0 W/m² | - |
| 1777953682 | 16.11° C | 48% | 1008.7 hPa | 0 mm | - | 0 W/m² | - |
| 1777953382 | 16.11° C | 50% | 1008.6 hPa | 0 mm | - | 0 W/m² | - |
| 1777953082 | 16.67° C | 50% | 1008.5 hPa | 0 mm | - | 0 W/m² | - |
| 1777952782 | 16.67° C | 47% | 1008.3 hPa | 0 mm | - | 0 W/m² | - |
| 1777952482 | 16.67° C | 47% | 1008.2 hPa | 0 mm | - | 0 W/m² | - |
| 1777952182 | 17.22° C | 47% | 1008.2 hPa | 0 mm | - | 0 W/m² | - |
| 1777951882 | 17.22° C | 47% | 1008.1 hPa | 0 mm | - | 0 W/m² | - |
| 1777951582 | 17.22° C | 46% | 1008.1 hPa | 0 mm | - | 0 W/m² | - |
| 1777951282 | 17.78° C | 46% | 1007.9 hPa | 0 mm | - | 0 W/m² | - |
| 1777950982 | 17.78° C | 45% | 1007.9 hPa | 0 mm | - | 0 W/m² | - |
| 1777950682 | 18.33° C | 44% | 1007.7 hPa | 0 mm | - | 0 W/m² | - |
| 1777950382 | 18.33° C | 45% | 1007.6 hPa | 0 mm | - | 5 W/m² | - |
| 1777950082 | 18.33° C | 44% | 1007.5 hPa | 0 mm | - | 7 W/m² | - |
| 1777949782 | 18.89° C | 44% | 1007.5 hPa | 0 mm | - | 9 W/m² | - |
| 1777949482 | 18.89° C | 44% | 1007.4 hPa | 0 mm | - | 11 W/m² | - |
| 1777949182 | 18.89° C | 43% | 1007.3 hPa | 0 mm | - | 14 W/m² | - |
| 1777948882 | 19.44° C | 43% | 1007.3 hPa | 0 mm | - | 16 W/m² | - |
| 1777948582 | 19.44° C | 45% | 1007.4 hPa | 0 mm | - | 18 W/m² | - |
* Rain latest hour (hover to see other rain measurements)
** Current wind speed in m/s (hover to see current wind gust speed)